[[{"header":{"parameterUnit":"m.s-1","parameterCategory":1,"la1":30.2991,"la2":30.254,"lo1":-89.0895,"lo2":-89.0444,"dy":0.0017,"dx":0.0017,"nx":28,"ny":28,"refTime":"2025-07-03T09:00:00:Z","depth":0,"parameterNumber":2,"parameterNumberName":"U-component_of_WINDS"},"data":[0,0,0,0,0,0,0,0,0,0,0,0,0,0,0,0,0,0,0,0,0,0,0,0,0,0,0,0,0,0,0,0,0,0,0,0,0,0,0,0,0,0,0,0,0,0,0,0,0,0,0,0,0,0,0,0,0,0,-0.1566,-0.1566,0,-0.1583,-0.1583,-0.1583,-0.1618,-0.1619,-0.1619,-0.162,-0.1636,-0.1636,-0.1636,0,0,0,0,0,0,0,0,0,0,0,0,0,-0.1561,-0.1561,-0.1566,-0.1566,-0.1566,-0.1583,-0.1583,-0.1583,-0.1618,-0.1619,-0.1619,-0.162,-0.1636,-0.1636,-0.1636,0,0,0,0,0,0,0,0,0,0,0,0,0,-0.1569,-0.1561,-0.1566,-0.1585,-0.1587,-0.1583,-0.1583,-0.1583,-0.1618,-0.1619,-0.162,-0.1621,-0.1636,-0.1636,-0.1636,-0.1613,0,0,-0.1635,-0.1635,0,0,0,0,0,0,0,0,-0.1568,-0.1569,-0.1582,-0.1584,-0.1586,-0.1599,-0.1587,-0.1593,-0.1617,-0.1606,-0.162,-0.1621,-0.1623,-0.1624,-0.1625,-0.1614,-0.1614,-0.1635,-0.1634,-0.1634,-0.1634,0,0,0,0,0,0,0,-0.1568,-0.1568,-0.1572,-0.1582,-0.1585,-0.1593,-0.1595,-0.1588,-0.1608,-0.1607,-0.161,-0.1611,-0.1624,-0.1625,-0.1625,-0.1614,-0.1635,-0.1634,-0.1634,-0.1634,-0.1582,-0.1581,0,0,0,0,0,0,-0.1564,-0.1568,-0.1572,-0.1573,-0.158,-0.1592,-0.1594,-0.1594,-0.1609,-0.1612,-0.161,-0.1613,-0.1625,-0.1626,-0.1626,-0.1598,-0.1634,-0.1634,-0.1634,-0.1583,-0.1582,-0.1581,0,0,0,0,0,0,-0.1564,-0.1565,-0.1571,-0.1571,-0.1572,-0.1591,-0.159,-0.1594,-0.1594,-0.1611,-0.1615,-0.1607,-0.1626,-0.1626,-0.1615,-0.1599,-0.1634,-0.1634,-0.1585,-0.1583,-0.1581,-0.1542,0,0,0,0,0,0,-0.1564,-0.1564,-0.1556,-0.1571,-0.1572,-0.1561,-0.1589,-0.1593,-0.1594,-0.1597,-0.1609,-0.1612,-0.1627,-0.1615,-0.1615,-0.1599,-0.1633,-0.1586,-0.1584,-0.1582,-0.1545,-0.1539,-0.1534,0,0,0,0,0,-0.1564,-0.1545,-0.1556,-0.1556,-0.1563,-0.156,-0.1561,-0.1578,-0.1593,-0.1584,-0.1594,-0.1612,-0.1601,-0.1614,-0.1614,-0.1597,-0.1587,-0.1584,-0.1582,-0.1547,-0.154,-0.1534,0,0,0,0,0,0,-0.1529,-0.1547,-0.156,-0.1545,-0.1551,-0.1566,-0.1556,-0.157,-0.1572,-0.1575,-0.1596,-0.1598,-0.1583,-0.159,-0.1604,-0.1574,-0.1597,-0.1594,-0.157,-0.1564,-0.1559,-0.1557,-0.1633,0,0,0,0,0,-0.1519,-0.1516,-0.1532,-0.1518,-0.152,-0.1537,-0.1537,-0.1549,-0.1555,-0.1558,-0.1567,-0.1572,-0.157,-0.1568,-0.1567,-0.1547,-0.1548,-0.1535,-0.153,-0.1525,-0.1522,-0.1509,-0.1502,-0.1572,-0.1572,-0.1572,0,0,-0.15,-0.151,-0.1506,-0.1511,-0.1517,-0.1511,-0.1539,-0.1533,-0.1528,-0.1557,-0.1546,-0.1553,-0.156,-0.1543,-0.1536,-0.1548,-0.1503,-0.1522,-0.1518,-0.1517,-0.1505,-0.1498,-0.1493,-0.157,-0.157,-0.1571,0,0,-0.1461,-0.147,-0.1457,-0.1462,-0.147,-0.1481,-0.1478,-0.149,-0.1496,-0.1486,-0.1506,-0.1501,-0.1497,-0.15,-0.1501,-0.1461,-0.1476,-0.146,-0.1432,-0.1419,-0.1413,-0.1408,-0.1391,-0.1385,-0.1457,-0.1457,-0.1457,0,-0.1436,-0.1429,-0.1449,-0.144,-0.1441,-0.1466,-0.1453,-0.1456,-0.1463,-0.1462,-0.1476,-0.1469,-0.1476,-0.1459,-0.1449,-0.145,-0.1445,-0.1458,-0.1413,-0.1408,-0.1404,-0.1388,-0.1382,-0.1455,-0.1455,-0.1456,-0.1456,0,-0.1396,-0.1391,-0.138,-0.1385,-0.1385,-0.1374,-0.139,-0.1387,-0.14,-0.1409,-0.1397,-0.1405,-0.1405,-0.1402,-0.1415,-0.1386,-0.1393,-0.1409,-0.1432,-0.1395,-0.138,-0.1374,-0.1452,-0.1453,-0.1453,-0.1454,0,0,-0.1335,-0.1351,-0.1346,-0.1348,-0.1358,-0.1354,-0.1343,-0.1343,-0.1338,-0.1342,-0.1332,-0.1327,-0.1341,-0.1343,-0.1356,-0.1344,-0.1308,-0.1362,-0.1362,-0.1349,-0.1274,-0.1259,-0.1252,-0.1319,-0.1318,-0.1318,-0.1272,0,-0.1297,-0.128,-0.1296,-0.1275,-0.1269,-0.1293,-0.1283,-0.1287,-0.1296,-0.1291,-0.13,-0.1295,-0.1316,-0.1316,-0.1306,-0.1315,-0.1293,-0.1319,-0.1308,-0.1307,-0.1303,-0.1245,-0.1231,-0.1187,-0.1267,-0.1266,-0.1265,0,-0.125,-0.125,-0.1228,-0.1237,-0.1236,-0.1227,-0.1226,-0.1222,-0.1227,-0.1233,-0.1233,-0.1249,-0.1237,-0.1261,-0.1244,-0.1261,-0.1257,-0.1261,-0.1259,-0.1257,-0.1282,-0.1238,-0.1174,-0.1167,-0.1257,-0.1258,-0.1258,0,-0.1204,-0.12,-0.1185,-0.1186,-0.1197,-0.119,-0.1194,-0.12,-0.1198,-0.1197,-0.1196,-0.1194,-0.1192,-0.119,-0.1204,-0.122,-0.1184,-0.1209,-0.1187,-0.1186,-0.1177,-0.1177,-0.1108,-0.1179,-0.1179,-0.1179,-0.1179,0,-0.1158,-0.1143,-0.1164,-0.1155,-0.1138,-0.1157,-0.114,-0.1146,-0.1151,-0.1142,-0.1163,-0.1155,-0.1175,-0.1168,-0.1179,-0.1161,-0.1161,-0.1164,-0.1167,-0.1161,-0.116,-0.1157,-0.1159,-0.1178,-0.1178,-0.1178,-0.1179,0,-0.1103,-0.1117,-0.1103,-0.1114,-0.1116,-0.1103,-0.1112,-0.1103,-0.1113,-0.1101,-0.11,-0.1114,-0.1107,-0.1121,-0.1115,-0.1123,-0.1097,-0.1106,-0.1095,-0.1097,-0.1072,-0.1073,-0.0998,-0.0987,-0.1067,-0.1067,-0.1066,0,-0.1071,-0.106,-0.107,-0.1065,-0.1068,-0.1061,-0.1059,-0.1077,-0.1073,-0.1076,-0.1066,-0.1061,-0.1057,-0.1043,-0.1052,-0.1048,-0.1055,-0.1028,-0.1054,-0.1047,-0.105,-0.105,-0.1047,-0.1022,-0.1021,-0.1021,-0.102,0,-0.1012,-0.1019,-0.1015,-0.1013,-0.1009,-0.1008,-0.1009,-0.1004,-0.1022,-0.1017,-0.1009,-0.1006,-0.1,-0.0993,-0.099,-0.0993,-0.1008,-0.1012,-0.1006,-0.0998,-0.0991,-0.0992,-0.1078,-0.1013,-0.1014,-0.1014,-0.1015,-0.1015,-0.0966,-0.0956,-0.096,-0.0954,-0.0956,-0.0956,-0.0947,-0.0955,-0.0949,-0.0945,-0.0956,-0.0945,-0.0948,-0.0946,-0.0947,-0.0938,-0.0949,-0.0941,-0.0939,-0.0936,-0.093,-0.0995,-0.0938,-0.0938,-0.0938,-0.0938,-0.0939,0,-0.0905,-0.0909,-0.0904,-0.0903,-0.0897,-0.0914,-0.0914,-0.0908,-0.0898,-0.09,-0.0895,-0.0885,-0.0878,-0.0886,-0.088,-0.0871,-0.0877,-0.0868,-0.0868,-0.0867,-0.0922,-0.0927,-0.0863,-0.0863,-0.0863,-0.0863,-0.0863,-0.0863,-0.0873,-0.0856,-0.0863,-0.0846,-0.085,-0.084,-0.0838,-0.0837,-0.0838,-0.0826,-0.082,-0.0825,-0.0829,-0.0823,-0.0816,-0.0819,-0.0814,-0.0802,-0.0806,-0.0857,-0.0864,-0.0871,-0.0875,-0.0801,-0.0801,-0.0752,-0.0752,-0.0751]},{"header":{"parameterUnit":"m.s-1","parameterCategory":1,"la1":30.2991,"la2":30.254,"lo1":-89.0895,"lo2":-89.0444,"dy":0.0017,"dx":0.0017,"nx":28,"ny":28,"refTime":"2025-07-03T09:00:00:Z","depth":0,"parameterNumber":3,"parameterNumberName":"V-component_of_WINDS"},"data":[0,0,0,0,0,0,0,0,0,0,0,0,0,0,0,0,0,0,0,0,0,0,0,0,0,0,0,0,0,0,0,0,0,0,0,0,0,0,0,0,0,0,0,0,0,0,0,0,0,0,0,0,0,0,0,0,0,0,-2.9343,-2.9343,0,-2.9339,-2.9339,-2.9339,-2.9296,-2.9295,-2.9294,-2.9293,-2.9288,-2.9289,-2.929,0,0,0,0,0,0,0,0,0,0,0,0,0,-2.9312,-2.9313,-2.9343,-2.9343,-2.9343,-2.9339,-2.9339,-2.9339,-2.9296,-2.9295,-2.9293,-2.9292,-2.9288,-2.9289,-2.929,0,0,0,0,0,0,0,0,0,0,0,0,0,-2.9319,-2.9313,-2.9343,-2.9321,-2.9319,-2.9339,-2.9339,-2.9339,-2.9296,-2.9295,-2.9293,-2.9292,-2.9287,-2.9289,-2.929,-2.933,0,0,-2.9294,-2.9294,0,0,0,0,0,0,0,0,-2.9318,-2.932,-2.9324,-2.9323,-2.9321,-2.9316,-2.9326,-2.9336,-2.9297,-2.9305,-2.9293,-2.9291,-2.9299,-2.9299,-2.9302,-2.933,-2.933,-2.9294,-2.9295,-2.9295,-2.9296,0,0,0,0,0,0,0,-2.9318,-2.932,-2.9341,-2.9325,-2.9322,-2.9311,-2.931,-2.9328,-2.9311,-2.9304,-2.9301,-2.9301,-2.9297,-2.9301,-2.9301,-2.933,-2.9294,-2.9295,-2.9296,-2.9296,-2.9389,-2.939,0,0,0,0,0,0,-2.9321,-2.932,-2.9342,-2.9341,-2.9315,-2.9313,-2.9312,-2.9319,-2.9311,-2.9308,-2.9303,-2.9299,-2.9299,-2.93,-2.9301,-2.9346,-2.9295,-2.9297,-2.9297,-2.9387,-2.9389,-2.9391,0,0,0,0,0,0,-2.932,-2.9323,-2.9342,-2.933,-2.9331,-2.9315,-2.9324,-2.932,-2.9323,-2.9309,-2.9306,-2.9309,-2.9298,-2.9299,-2.9323,-2.9345,-2.9297,-2.9298,-2.9385,-2.9388,-2.939,-2.9438,0,0,0,0,0,0,-2.932,-2.9323,-2.9339,-2.933,-2.9332,-2.9364,-2.9325,-2.9321,-2.9326,-2.9321,-2.9315,-2.9312,-2.9297,-2.9321,-2.9324,-2.9346,-2.9299,-2.9383,-2.9386,-2.9389,-2.9434,-2.9442,-2.9448,0,0,0,0,0,-2.9319,-2.9353,-2.934,-2.9343,-2.9351,-2.9366,-2.9367,-2.9349,-2.9328,-2.9343,-2.9334,-2.9312,-2.9343,-2.9324,-2.9327,-2.935,-2.9382,-2.9385,-2.9389,-2.9431,-2.944,-2.9448,0,0,0,0,0,0,-2.9365,-2.9351,-2.9337,-2.937,-2.9369,-2.9359,-2.9377,-2.9359,-2.9365,-2.936,-2.9337,-2.9336,-2.9363,-2.9359,-2.9338,-2.9387,-2.9358,-2.9363,-2.9389,-2.9398,-2.9404,-2.9404,-2.93,0,0,0,0,0,-2.9379,-2.9392,-2.938,-2.9409,-2.941,-2.9394,-2.9399,-2.9385,-2.9384,-2.9383,-2.9376,-2.9375,-2.9384,-2.9391,-2.9399,-2.9433,-2.943,-2.9451,-2.9458,-2.9463,-2.9467,-2.9483,-2.9492,-2.9403,-2.9403,-2.9403,0,0,-2.9408,-2.9402,-2.9412,-2.9418,-2.9416,-2.943,-2.9394,-2.941,-2.9419,-2.9386,-2.9407,-2.9402,-2.9399,-2.9428,-2.9441,-2.9426,-2.9491,-2.9468,-2.9473,-2.9473,-2.9488,-2.9496,-2.9504,-2.9406,-2.9405,-2.9405,0,0,-2.9467,-2.9465,-2.9489,-2.9487,-2.9484,-2.9473,-2.9479,-2.9471,-2.9466,-2.9487,-2.9461,-2.9472,-2.9489,-2.9487,-2.9489,-2.9546,-2.9526,-2.955,-2.9586,-2.9602,-2.9609,-2.9615,-2.9633,-2.9641,-2.9554,-2.9554,-2.9554,0,-2.9504,-2.9523,-2.9503,-2.952,-2.9523,-2.9493,-2.9516,-2.9516,-2.9516,-2.9518,-2.9502,-2.9521,-2.9517,-2.9544,-2.9558,-2.9561,-2.9566,-2.955,-2.9609,-2.9615,-2.962,-2.9638,-2.9645,-2.9557,-2.9556,-2.9556,-2.9556,0,-2.9567,-2.9581,-2.96,-2.96,-2.9606,-2.9626,-2.9608,-2.9616,-2.9601,-2.9591,-2.9612,-2.9607,-2.9612,-2.9618,-2.9604,-2.9643,-2.9633,-2.9613,-2.9583,-2.9632,-2.9648,-2.9655,-2.9561,-2.956,-2.9559,-2.9558,0,0,-2.9656,-2.9644,-2.9651,-2.965,-2.9644,-2.9654,-2.9672,-2.9677,-2.9683,-2.9684,-2.9698,-2.9712,-2.9693,-2.9695,-2.968,-2.9695,-2.9738,-2.9673,-2.9672,-2.9684,-2.9779,-2.9793,-2.9801,-2.9725,-2.9727,-2.9728,-2.9779,0,-2.9712,-2.9742,-2.9724,-2.9757,-2.9769,-2.9739,-2.9755,-2.9753,-2.9744,-2.9752,-2.9742,-2.9752,-2.9727,-2.9728,-2.9741,-2.973,-2.9757,-2.9727,-2.9737,-2.9737,-2.9737,-2.981,-2.9825,-2.9874,-2.9785,-2.9786,-2.9787,0,-2.9781,-2.9784,-2.9818,-2.9808,-2.9812,-2.9827,-2.9829,-2.9837,-2.9834,-2.9826,-2.9827,-2.9809,-2.9825,-2.9796,-2.9817,-2.9797,-2.98,-2.9796,-2.9797,-2.9796,-2.9764,-2.981,-2.9889,-2.9896,-2.9797,-2.9796,-2.9795,0,-2.9841,-2.9853,-2.9875,-2.9875,-2.9864,-2.9875,-2.9871,-2.9865,-2.9869,-2.9871,-2.9872,-2.9876,-2.9878,-2.9881,-2.9864,-2.9845,-2.9887,-2.9857,-2.988,-2.988,-2.9889,-2.9889,-2.9969,-2.9894,-2.9894,-2.9894,-2.9893,0,-2.9904,-2.9926,-2.9901,-2.9914,-2.9937,-2.9915,-2.9938,-2.9931,-2.9926,-2.9937,-2.9912,-2.9923,-2.9899,-2.9907,-2.9894,-2.9912,-2.9914,-2.9907,-2.9903,-2.9909,-2.9909,-2.991,-2.9905,-2.9895,-2.9895,-2.9895,-2.9894,0,-2.9975,-2.9959,-2.998,-2.9968,-2.9965,-2.9982,-2.9971,-2.9982,-2.9971,-2.9985,-2.9987,-2.997,-2.9977,-2.996,-2.9966,-2.9957,-2.9983,-2.9974,-2.9984,-2.9981,-3.0004,-3.0002,-3.0086,-3.0095,-3.0016,-3.0017,-3.0017,0,-3.0016,-3.0031,-3.002,-3.0025,-3.0023,-3.0032,-3.0035,-3.0014,-3.0018,-3.0014,-3.0025,-3.0031,-3.0034,-3.0047,-3.0035,-3.0038,-3.0029,-3.0058,-3.0029,-3.0034,-3.0027,-3.0026,-3.0027,-3.0064,-3.0065,-3.0065,-3.0066,0,-3.009,-3.0081,-3.0086,-3.0089,-3.0093,-3.0094,-3.0093,-3.0098,-3.0076,-3.0082,-3.0089,-3.0091,-3.0096,-3.0102,-3.0102,-3.0097,-3.0078,-3.0075,-3.008,-3.0086,-3.009,-3.0086,-2.9999,-3.0073,-3.0073,-3.0072,-3.0072,-3.0071,-3.0146,-3.0157,-3.0151,-3.0157,-3.0154,-3.0154,-3.0163,-3.0153,-3.0158,-3.016,-3.0148,-3.0157,-3.0151,-3.015,-3.0147,-3.0154,-3.0141,-3.0149,-3.015,-3.0152,-3.0155,-3.009,-3.0154,-3.0154,-3.0154,-3.0154,-3.0153,0,-3.0217,-3.0211,-3.0217,-3.0216,-3.0221,-3.0202,-3.0199,-3.0204,-3.0213,-3.0209,-3.0213,-3.022,-3.0225,-3.0213,-3.0215,-3.0223,-3.0213,-3.0224,-3.0222,-3.0221,-3.0168,-3.0163,-3.0231,-3.0231,-3.0231,-3.0231,-3.0231,-3.0231,-3.0255,-3.0273,-3.0263,-3.0279,-3.0273,-3.0282,-3.0282,-3.0281,-3.0277,-3.0286,-3.029,-3.0282,-3.0274,-3.0276,-3.0279,-3.0275,-3.0276,-3.029,-3.0283,-3.0233,-3.0225,-3.0218,-3.0213,-3.029,-3.029,-3.0335,-3.0335,-3.0336]}]]